This demonstration page uses our WeatherBlox Daily Observations layout. Learn more.

Left ArrowRight Arrow

38.20091, -84.87328

Hourly Observations for July 1, 2015

Temp ( °F °C ) Dew Point ( °F °C ) Humidity (%) Winds ( mph kmh ) Pressure ( in mb ) Visibility ( mi km ) Precip ( " mm )
1:53 am 01:53 Cloudy with Rain 64 17.8 62 16.7 93 93 Calm 29.87 1012 3 5 0.03 0.76
2:53 am 02:53 Cloudy with Mist and Fog 65 18.3 62 16.7 90 90 Calm 29.86 1011 6 10 0.01 0.25
3:53 am 03:53 Partly Cloudy with Mist and Fog 65 18.3 62 16.7 90 90 SW 9 15 29.87 1012 5 8 0.00 0.00
4:53 am 04:53 Clear with Mist and Fog 64 17.8 62 16.7 93 93 SW 9 15 29.86 1011 5 8 0.00 0.00
5:53 am 05:53 Mostly Clear with Mist and Fog 66 18.9 63 17.2 90 90 WSW 6 9 29.86 1011 5 8 0.00 0.00
6:53 am 06:53 Sunny with Mist and Fog 66 18.9 64 17.8 93 93 W 3 6 29.88 1012 3 5 0.00 0.00
7:53 am 07:53 Sunny with Mist and Fog 67 19.4 65 18.3 93 93 Calm 29.90 1012 3 5 0.00 0.00
8:53 am 08:53 Sunny with Mist and Fog 70 21.1 67 19.4 90 90 WSW 7 11 29.92 1013 5 8 0.00 0.00
9:02 am 09:02 Partly Cloudy with Mist and Fog 70 21.1 67 19.4 90 90 WSW 5 7 29.91 1013 5 8 0.00 0.00
9:51 am 09:51 Mostly Cloudy with Mist and Fog 72 22 68 20 88 88 VRB 3 6 29.91 1013 5 8 0.00 0.00
9:53 am 09:53 Mostly Cloudy with Mist and Fog 72 22.2 68 20 87 87 VRB 3 6 29.93 1014 5 8 0.00 0.00
10:28 am 10:28 Cloudy with Haze 73 22.8 68 20 84 84 WNW 5 7 29.91 1013 5 8 0.00 0.00
10:53 am 10:53 Cloudy with Haze 73 22.8 67 19.4 81 81 Calm 29.93 1014 5 8 0.00 0.00
11:08 am 11:08 Cloudy with Haze 74 23.3 67 19.4 79 79 W 6 9 29.91 1013 5 8 0.00 0.00
11:53 am 11:53 Hazy 76 24.4 67 19.4 74 74 N 3 6 29.94 1014 6 10 0.00 0.00
12:27 pm 12:27 Mostly Cloudy with Haze 77 25 68 20 74 74 NNW 6 9 29.94 1014 6 10 0.00 0.00
12:51 pm 12:51 Hazy 75 24 66 19 74 74 NNW 6 9 29.91 1013 6 10 0.00 0.00
12:53 pm 12:53 Hazy 77 25 68 20 74 74 NNW 5 7 29.93 1013 6 10 0.00 0.00
1:53 pm 13:53 Mostly Cloudy 77 25 67 19.4 71 71 Calm 29.92 1013 7 11 0.00 0.00
2:53 pm 14:53 Sunny 79 26.1 67 19.4 67 67 NW 5 7 29.91 1013 7 11 0.00 0.00
3:53 pm 15:53 Cloudy with Light Rain 76 24.4 67 19.4 74 74 W 3 6 29.90 1012 6 10 0.00 0.03
4:17 pm 16:17 Cloudy with Rain 73 22.8 69 20.6 87 87 SW 9 15 29.88 1012 3 4 0.03 0.76
4:43 pm 16:43 Cloudy with Light Rain 70 21.1 67 19.4 90 90 WSW 9 15 29.88 1012 4 6 0.04 1.02
4:53 pm 16:53 Cloudy with Mist and Fog 70 21.1 67 19.4 90 90 SW 7 11 29.89 1012 4 6 0.04 1.02
5:53 pm 17:53 Cloudy with Haze 71 21.7 65 18.3 81 81 Calm 29.88 1012 5 8 0.00 0.00
6:53 pm 18:53 Cloudy with Haze 73 22.8 66 18.9 79 79 Calm 29.88 1012 5 8 0.00 0.00
7:53 pm 19:53 Cloudy with Haze 73 22.8 67 19.4 81 81 W 3 6 29.89 1012 6 10 0.00 0.00
7:57 pm 19:57 Cloudy with Thunderstorms 64 17.8 61 16.1 90 90 VRB 5 7 29.83 1010 3 5 0.00 0.03
8:53 pm 20:53 Mostly Cloudy with Mist and Fog 72 22.2 68 20 87 87 Calm 29.89 1012 5 8 0.00 0.00
9:53 pm 21:53 Mostly Cloudy with Mist and Fog 71 21.7 67 19.4 87 87 Calm 29.90 1013 6 10 0.00 0.00
10:53 pm 22:53 Mostly Cloudy with Mist and Fog 69 20.6 67 19.4 93 93 Calm 29.91 1013 4 6 0.00 0.00
11:22 pm 23:22 Mostly Cloudy with Mist and Fog 69 20.6 67 19.4 93 93 Calm 29.91 1013 3 5 0.00 0.00
11:48 pm 23:48 Cloudy with Mist and Fog 70 21 66 19 88 88 Calm 29.91 1013 4 6 0.00 0.00
11:53 pm 23:53 Mostly Cloudy with Mist and Fog 70 21.1 67 19.4 90 90 Calm 29.92 1013 4 6 0.00 0.00

Powered by AerisWeather